This is the latest recevied weather packets stored in our database for station/object KE6LRO. If no packets are shown the sender has not sent any weather packets the latest 10 day(s).
| Time | Temp. | Humidity | Pressure | Rain* | Wind** | Luminosity | Snow |
|---|---|---|---|---|---|---|---|
| 1777581156 | 17.78° C | 33% | 1025.5 hPa | 0 mm | - | 731 W/m² | - |
| 1777580851 | 17.78° C | 30% | 1025.3 hPa | 0 mm | - | 737 W/m² | - |
| 1777580546 | 17.78° C | 32% | 1025.4 hPa | 0 mm | - | 744 W/m² | - |
| 1777580236 | 17.78° C | 31% | 1025.4 hPa | 0 mm | - | 759 W/m² | - |
| 1777579934 | 17.78° C | 32% | 1025.6 hPa | 0 mm | - | 760 W/m² | - |
| 1777579634 | 17.78° C | 32% | 1025.6 hPa | 0 mm | - | 771 W/m² | - |
| 1777579333 | 17.78° C | 33% | 1025.6 hPa | 0 mm | - | 782 W/m² | - |
| 1777579029 | 17.78° C | 31% | 1025.7 hPa | 0 mm | - | 782 W/m² | - |
| 1777578724 | 17.78° C | 28% | 1025.7 hPa | 0 mm | - | 773 W/m² | - |
| 1777578423 | 17.22° C | 31% | 1025.6 hPa | 0 mm | - | 779 W/m² | - |
| 1777578119 | 17.22° C | 32% | 1026 hPa | 0 mm | - | 791 W/m² | - |
| 1777577815 | 17.22° C | 30% | 1025.8 hPa | 0 mm | - | 782 W/m² | - |
| 1777577511 | 16.67° C | 31% | 1025.8 hPa | 0 mm | - | 782 W/m² | - |
| 1777577208 | 16.67° C | 30% | 1026.2 hPa | 0 mm | - | 782 W/m² | - |
| 1777576904 | 17.22° C | 31% | 1026.2 hPa | 0 mm | - | 783 W/m² | - |
| 1777576604 | 16.67° C | 33% | 1026.3 hPa | 0 mm | - | 784 W/m² | - |
| 1777576300 | 16.11° C | 31% | 1026.4 hPa | 0 mm | - | 795 W/m² | - |
| 1777575996 | 16.67° C | 32% | 1026.4 hPa | 0 mm | - | 804 W/m² | - |
| 1777575693 | 16.67° C | 31% | 1026.3 hPa | 0 mm | - | 795 W/m² | - |
| 1777575388 | 16.67° C | 34% | 1026.6 hPa | 0 mm | - | 833 W/m² | - |
| 1777575085 | 16.11° C | 33% | 1026.4 hPa | 0 mm | - | 828 W/m² | - |
| 1777574780 | 16.67° C | 33% | 1026.5 hPa | 0 mm | - | 797 W/m² | - |
| 1777574478 | 15.56° C | 35% | 1026.4 hPa | 0 mm | - | 782 W/m² | - |
| 1777574175 | 15.56° C | 33% | 1026.6 hPa | 0 mm | - | 782 W/m² | - |
| 1777573869 | 15.56° C | 34% | 1026.6 hPa | 0 mm | - | 756 W/m² | - |
* Rain latest hour (hover to see other rain measurements)
** Current wind speed in m/s (hover to see current wind gust speed)